DHK053 KCVG-EGNX

Flight info

Callsign DHK053
Flight time N/A
Altitude 31000
Route BNGLE5 WWSHR Q29 DORET DCT DKK DCT BUF DCT YUL DCT ANCER/N0477F330 DCT LOMSI/M083F330 DCT 54N050W 5430N04000W 55N030W 55N020W DCT VENER/N0478F330 DCT KOKIB DCT DEXEN UY124 DOLOP
Aircraft B77L/H-SDE1E2E3FGHIJ2J3J4J5M1RWXY/LB1D1

Departure

Time 2026-05-06 13:54
Airport Cincinnati Northern Kentucky International Airport (KCVG)

Arrival

Time N/A
Airport East Midlands Airport (EGNX)
Time Latitude Longitude Altitude Speed Heading
2026-05-06 13:40 39.03640 -84.65382 891 ft 0 kts
2026-05-06 13:45 39.03607 -84.65384 891 ft 4 kts
2026-05-06 13:45 39.03590 -84.65380 891 ft 3 kts 324°
2026-05-06 13:46 39.03576 -84.65361 891 ft 4 kts 282°
2026-05-06 13:46 39.03574 -84.65328 891 ft 3 kts 270°
2026-05-06 13:46 39.03574 -84.65322 891 ft 0 kts 270°
2026-05-06 13:49 39.03574 -84.65355 891 ft 10 kts 270°
2026-05-06 13:49 39.03574 -84.65446 891 ft 10 kts 270°
2026-05-06 13:49 39.03574 -84.65537 891 ft 10 kts 270°
2026-05-06 13:50 39.03575 -84.65628 891 ft 10 kts 270°
2026-05-06 13:50 39.03575 -84.65724 891 ft 11 kts 270°
2026-05-06 13:50 39.03575 -84.65821 891 ft 11 kts 270°
2026-05-06 13:50 39.03576 -84.65921 891 ft 11 kts 270°
2026-05-06 13:51 39.03577 -84.66019 891 ft 12 kts 272°
2026-05-06 13:51 39.03580 -84.66123 891 ft 12 kts 272°
2026-05-06 13:51 39.03583 -84.66228 891 ft 12 kts 272°
2026-05-06 13:51 39.03586 -84.66333 891 ft 12 kts 272°
2026-05-06 13:52 39.03589 -84.66437 891 ft 12 kts 272°
2026-05-06 13:52 39.03591 -84.66542 891 ft 12 kts 270°
2026-05-06 13:52 39.03592 -84.66647 890 ft 12 kts 270°
2026-05-06 13:52 39.03592 -84.66751 888 ft 11 kts 270°
2026-05-06 13:53 39.03595 -84.66834 884 ft 8 kts 284°
2026-05-06 13:53 39.03637 -84.66872 883 ft 8 kts 349°
2026-05-06 13:53 39.03695 -84.66873 883 ft 12 kts
2026-05-06 13:53 39.03898 -84.66871 881 ft 58 kts 360°
2026-05-06 13:54 39.04564 -84.66871 884 ft 131 kts 360°
2026-05-06 13:54 39.05670 -84.66856 940 ft 183 kts
2026-05-06 13:54 39.06976 -84.66824 1459 ft 191 kts
2026-05-06 13:54 39.08312 -84.66800 2186 ft 191 kts
2026-05-06 13:55 39.09669 -84.66805 2795 ft 195 kts 359°
2026-05-06 13:55 39.11046 -84.66864 3454 ft 199 kts 356°
2026-05-06 13:55 39.12415 -84.67147 4040 ft 199 kts 339°
2026-05-06 13:55 39.13275 -84.67438 4480 ft 194 kts 359°
2026-05-06 13:56 39.14611 -84.67038 4821 ft 203 kts 16°
2026-05-06 13:56 39.16010 -84.66674 5099 ft 212 kts
2026-05-06 13:56 39.17376 -84.65790 5125 ft 234 kts 40°
2026-05-06 13:56 39.18620 -84.64288 5284 ft 256 kts 39°
2026-05-06 13:57 39.19991 -84.62703 5668 ft 271 kts 39°
2026-05-06 13:57 39.21426 -84.61057 6216 ft 282 kts 38°
2026-05-06 13:57 39.22917 -84.59347 6809 ft 289 kts 38°
2026-05-06 13:57 39.24433 -84.57606 7445 ft 294 kts 39°
2026-05-06 13:58 39.25970 -84.55837 8104 ft 298 kts 38°
2026-05-06 13:58 39.27534 -84.54036 8707 ft 304 kts 38°
2026-05-06 13:58 39.29130 -84.52197 9305 ft 311 kts 38°
2026-05-06 13:58 39.30757 -84.50320 9914 ft 317 kts 38°
2026-05-06 13:59 39.32418 -84.48404 10387 ft 326 kts 38°
2026-05-06 13:59 39.34172 -84.46385 10549 ft 348 kts 38°
2026-05-06 13:59 39.36040 -84.44234 10737 ft 370 kts 38°
2026-05-06 13:59 39.38018 -84.41951 10909 ft 392 kts 38°
2026-05-06 14:00 39.40083 -84.39561 11329 ft 404 kts 38°
2026-05-06 14:00 39.42199 -84.37105 11916 ft 413 kts 38°
2026-05-06 14:00 39.44323 -84.34637 12581 ft 418 kts 38°
2026-05-06 14:00 39.46497 -84.32107 13286 ft 422 kts 37°
2026-05-06 14:01 39.48696 -84.29548 13952 ft 427 kts 37°
2026-05-06 14:01 39.50923 -84.26958 14504 ft 433 kts 37°
2026-05-06 14:01 39.53179 -84.24331 15062 ft 439 kts 36°
2026-05-06 14:01 39.55471 -84.21661 15619 ft 445 kts 36°
2026-05-06 14:02 39.57784 -84.18965 16198 ft 450 kts 36°
2026-05-06 14:02 39.60126 -84.16232 16761 ft 455 kts 36°
2026-05-06 14:02 39.62491 -84.13468 17314 ft 460 kts 36°
2026-05-06 14:02 39.64884 -84.10671 17865 ft 466 kts 36°
2026-05-06 14:03 39.67309 -84.07831 18392 ft 470 kts 35°
2026-05-06 14:03 39.69719 -84.05007 18859 ft 475 kts 36°
2026-05-06 14:03 39.72184 -84.02115 19329 ft 480 kts 36°